[[{"header":{"parameterUnit":"m.s-1","parameterCategory":1,"la1":30.2991,"la2":30.254,"lo1":-89.0895,"lo2":-89.0444,"dy":0.0017,"dx":0.0017,"nx":28,"ny":28,"refTime":"2024-11-27T03:00:00:Z","depth":0,"parameterNumber":2,"parameterNumberName":"U-component_of_WINDS"},"data":[0,0,0,0,0,0,0,0,0,0,0,0,0,0,0,0,0,0,0,0,0,0,0,0,0,0,0,0,0,0,0,0,0,0,0,0,0,0,0,0,0,0,0,0,0,0,0,0,0,0,0,0,0,0,0,0,0,0,-2.5012,-2.5013,0,-2.5149,-2.515,-2.5152,-2.5173,-2.5172,-2.5171,-2.5169,-2.5309,-2.5314,-2.5319,0,0,0,0,0,0,0,0,0,0,0,0,0,-2.4769,-2.4774,-2.5012,-2.5014,-2.5015,-2.5149,-2.515,-2.5152,-2.5173,-2.5172,-2.517,-2.5169,-2.5308,-2.5314,-2.5319,0,0,0,0,0,0,0,0,0,0,0,0,0,-2.4887,-2.4775,-2.5012,-2.5042,-2.5046,-2.5148,-2.5151,-2.5153,-2.5174,-2.5172,-2.517,-2.5168,-2.5306,-2.5313,-2.532,-2.5402,0,0,-2.5343,-2.5346,0,0,0,0,0,0,0,0,-2.488,-2.4896,-2.5036,-2.504,-2.5045,-2.5142,-2.5116,-2.5236,-2.5174,-2.5125,-2.5169,-2.5167,-2.5255,-2.5267,-2.5296,-2.5408,-2.5414,-2.5343,-2.5348,-2.5351,-2.5353,0,0,0,0,0,0,0,-2.4872,-2.489,-2.5066,-2.5038,-2.5043,-2.5049,-2.5063,-2.5139,-2.5199,-2.5129,-2.5131,-2.5147,-2.5257,-2.5289,-2.53,-2.5417,-2.5343,-2.5349,-2.5354,-2.5357,-2.5603,-2.5605,0,0,0,0,0,0,-2.4859,-2.4883,-2.5062,-2.507,-2.4956,-2.5055,-2.5071,-2.5113,-2.5198,-2.5209,-2.5148,-2.5147,-2.5278,-2.5291,-2.5305,-2.5405,-2.5351,-2.5358,-2.5362,-2.5601,-2.5603,-2.5606,0,0,0,0,0,0,-2.4853,-2.4874,-2.5056,-2.4977,-2.5001,-2.5061,-2.5107,-2.5116,-2.5148,-2.5213,-2.5223,-2.517,-2.5277,-2.5294,-2.5378,-2.5411,-2.5361,-2.5367,-2.5598,-2.5601,-2.5604,-2.5608,0,0,0,0,0,0,-2.4846,-2.4872,-2.4904,-2.4978,-2.5005,-2.5127,-2.5109,-2.512,-2.5161,-2.5161,-2.5236,-2.5246,-2.5277,-2.5367,-2.5385,-2.542,-2.5373,-2.5595,-2.56,-2.5603,-2.5605,-2.5611,-2.5616,0,0,0,0,0,-2.4837,-2.4899,-2.4905,-2.4926,-2.5046,-2.5128,-2.5144,-2.5178,-2.5163,-2.5195,-2.5237,-2.5244,-2.5404,-2.5375,-2.5396,-2.5433,-2.5593,-2.5598,-2.5603,-2.5602,-2.5609,-2.5615,0,0,0,0,0,0,-2.4827,-2.4909,-2.4917,-2.5004,-2.5059,-2.5132,-2.5173,-2.5184,-2.5244,-2.5242,-2.5281,-2.5298,-2.5379,-2.5415,-2.5381,-2.5517,-2.5498,-2.5507,-2.549,-2.5497,-2.5503,-2.5491,-2.5379,0,0,0,0,0,-2.4835,-2.4895,-2.4964,-2.5035,-2.5062,-2.5113,-2.515,-2.5172,-2.523,-2.5253,-2.5301,-2.5357,-2.5421,-2.5461,-2.5523,-2.5611,-2.5627,-2.5647,-2.5652,-2.5656,-2.5663,-2.5712,-2.5721,-2.5621,-2.5621,-2.5621,0,0,-2.4851,-2.4904,-2.4939,-2.5034,-2.5079,-2.514,-2.5132,-2.5198,-2.5244,-2.5263,-2.5344,-2.5382,-2.5447,-2.5533,-2.5573,-2.5565,-2.5695,-2.5663,-2.5665,-2.567,-2.5718,-2.5727,-2.5736,-2.5625,-2.5624,-2.5624,0,0,-2.4913,-2.4959,-2.5023,-2.5068,-2.5137,-2.517,-2.5186,-2.5257,-2.5283,-2.5365,-2.5381,-2.5437,-2.5545,-2.5591,-2.5628,-2.5709,-2.5717,-2.5728,-2.5755,-2.5802,-2.581,-2.5817,-2.5845,-2.5855,-2.5735,-2.5735,-2.5735,0,-2.4925,-2.5018,-2.5054,-2.5119,-2.516,-2.5181,-2.5246,-2.5288,-2.5373,-2.5401,-2.5392,-2.5528,-2.5574,-2.567,-2.569,-2.572,-2.5738,-2.5719,-2.5806,-2.5814,-2.5821,-2.5848,-2.5858,-2.5736,-2.5736,-2.5736,-2.5736,0,-2.5029,-2.5093,-2.5137,-2.5218,-2.5264,-2.5329,-2.5375,-2.5417,-2.5435,-2.547,-2.5554,-2.561,-2.5683,-2.5708,-2.5726,-2.5807,-2.58,-2.5798,-2.5779,-2.583,-2.5856,-2.5867,-2.5737,-2.5737,-2.5736,-2.5736,0,0,-2.5085,-2.5187,-2.5202,-2.5239,-2.5317,-2.5368,-2.5434,-2.5506,-2.5541,-2.56,-2.5655,-2.5747,-2.5746,-2.5788,-2.5812,-2.5854,-2.5913,-2.5847,-2.5849,-2.5856,-2.6005,-2.6005,-2.6016,-2.592,-2.5922,-2.5924,-2.5999,0,-2.5155,-2.5272,-2.5307,-2.5406,-2.5466,-2.5488,-2.5545,-2.5599,-2.5634,-2.569,-2.5729,-2.5793,-2.5787,-2.5812,-2.5855,-2.5897,-2.5943,-2.5892,-2.5971,-2.5974,-2.5952,-2.603,-2.603,-2.6099,-2.601,-2.6011,-2.6013,0,-2.5251,-2.5311,-2.5416,-2.5486,-2.5513,-2.5564,-2.5633,-2.5686,-2.5748,-2.5771,-2.5819,-2.584,-2.5909,-2.5888,-2.5984,-2.5949,-2.5984,-2.601,-2.6013,-2.602,-2.5995,-2.6038,-2.6121,-2.6131,-2.6029,-2.6028,-2.6027,0,-2.528,-2.5388,-2.5464,-2.5496,-2.558,-2.5615,-2.5652,-2.5713,-2.5754,-2.5814,-2.5842,-2.591,-2.5946,-2.5999,-2.6037,-2.6018,-2.613,-2.6112,-2.615,-2.6149,-2.6171,-2.6168,-2.6259,-2.6196,-2.6196,-2.6196,-2.6195,0,-2.5353,-2.5416,-2.5478,-2.5525,-2.5596,-2.5637,-2.5706,-2.5744,-2.5798,-2.5853,-2.5877,-2.5927,-2.5976,-2.6033,-2.6064,-2.6139,-2.6156,-2.6175,-2.6182,-2.6172,-2.6169,-2.6194,-2.619,-2.6198,-2.6198,-2.6197,-2.6197,0,-2.5396,-2.5441,-2.5526,-2.5599,-2.5619,-2.5668,-2.5731,-2.5778,-2.5814,-2.5883,-2.5902,-2.5959,-2.6027,-2.6072,-2.6159,-2.618,-2.6261,-2.6268,-2.624,-2.6243,-2.6278,-2.6273,-2.6386,-2.6403,-2.633,-2.6331,-2.6331,0,-2.5439,-2.5488,-2.5567,-2.5605,-2.5642,-2.5704,-2.5746,-2.5788,-2.5831,-2.5906,-2.5944,-2.6014,-2.6073,-2.6182,-2.6231,-2.6298,-2.6306,-2.6341,-2.6316,-2.6304,-2.6305,-2.63,-2.6305,-2.6344,-2.6345,-2.6345,-2.6345,0,-2.5509,-2.5529,-2.5589,-2.5658,-2.5707,-2.5763,-2.5819,-2.5849,-2.59,-2.5948,-2.6019,-2.6064,-2.6154,-2.6223,-2.6295,-2.6334,-2.6348,-2.6353,-2.6365,-2.6354,-2.6336,-2.6345,-2.6249,-2.635,-2.6349,-2.6349,-2.6349,-2.6349,-2.5553,-2.5597,-2.566,-2.5726,-2.5773,-2.5824,-2.5871,-2.5914,-2.5974,-2.605,-2.6072,-2.6145,-2.6207,-2.6305,-2.6345,-2.6403,-2.6399,-2.6417,-2.6421,-2.6424,-2.6424,-2.6328,-2.6417,-2.6417,-2.6417,-2.6417,-2.6417,0,-2.5623,-2.5665,-2.5726,-2.5803,-2.5855,-2.5865,-2.5928,-2.597,-2.6035,-2.6091,-2.6149,-2.623,-2.6298,-2.6353,-2.6423,-2.6459,-2.6468,-2.6476,-2.6473,-2.6481,-2.6424,-2.6406,-2.6468,-2.6468,-2.6468,-2.6468,-2.6468,-2.6468,-2.5666,-2.5741,-2.5769,-2.5868,-2.5909,-2.5982,-2.6016,-2.6064,-2.6109,-2.6199,-2.6256,-2.6292,-2.6348,-2.6422,-2.6485,-2.65,-2.6523,-2.653,-2.6546,-2.6491,-2.6485,-2.648,-2.6463,-2.6536,-2.6536,-2.6598,-2.6598,-2.6599]},{"header":{"parameterUnit":"m.s-1","parameterCategory":1,"la1":30.2991,"la2":30.254,"lo1":-89.0895,"lo2":-89.0444,"dy":0.0017,"dx":0.0017,"nx":28,"ny":28,"refTime":"2024-11-27T03:00:00:Z","depth":0,"parameterNumber":3,"parameterNumberName":"V-component_of_WINDS"},"data":[0,0,0,0,0,0,0,0,0,0,0,0,0,0,0,0,0,0,0,0,0,0,0,0,0,0,0,0,0,0,0,0,0,0,0,0,0,0,0,0,0,0,0,0,0,0,0,0,0,0,0,0,0,0,0,0,0,0,2.1992,2.1991,0,2.1927,2.1926,2.1925,2.1876,2.1875,2.1875,2.1875,2.1802,2.1801,2.1799,0,0,0,0,0,0,0,0,0,0,0,0,0,2.2068,2.2067,2.1992,2.1991,2.199,2.1927,2.1926,2.1925,2.1876,2.1875,2.1875,2.1874,2.1802,2.1801,2.1799,0,0,0,0,0,0,0,0,0,0,0,0,0,2.2022,2.2067,2.1992,2.1958,2.1955,2.1927,2.1926,2.1925,2.1876,2.1875,2.1875,2.1874,2.1803,2.1801,2.1799,2.1798,0,0,2.1792,2.1791,0,0,0,0,0,0,0,0,2.2025,2.202,2.1964,2.1961,2.1956,2.1909,2.1926,2.1882,2.1876,2.1906,2.1875,2.1874,2.1838,2.1833,2.1822,2.1794,2.1791,2.1791,2.179,2.1789,2.1788,0,0,0,0,0,0,0,2.2028,2.2022,2.1966,2.1963,2.1959,2.1945,2.1937,2.1918,2.1876,2.1903,2.1899,2.1893,2.1835,2.1824,2.1819,2.179,2.1791,2.1789,2.1788,2.1787,2.1757,2.1758,0,0,0,0,0,0,2.2037,2.2025,2.1968,2.1964,2.199,2.1944,2.1936,2.1925,2.1876,2.1868,2.1893,2.1891,2.1828,2.1822,2.1817,2.1811,2.1789,2.1787,2.1786,2.1757,2.1757,2.1758,0,0,0,0,0,0,2.2039,2.2033,2.1971,2.1994,2.1985,2.1943,2.1931,2.1924,2.1912,2.1869,2.1861,2.189,2.1827,2.182,2.1803,2.1808,2.1786,2.1784,2.1756,2.1757,2.1758,2.1802,0,0,0,0,0,0,2.2042,2.2034,2.2034,2.1994,2.1984,2.196,2.1932,2.1923,2.1909,2.1905,2.1863,2.1855,2.1826,2.1807,2.1801,2.1805,2.1782,2.1755,2.1756,2.1757,2.18,2.1804,2.1808,0,0,0,0,0,2.2045,2.2048,2.2035,2.2028,2.1984,2.196,2.1954,2.1922,2.191,2.1909,2.1881,2.1857,2.1809,2.1805,2.1798,2.1802,2.1755,2.1756,2.1757,2.1798,2.1803,2.1808,0,0,0,0,0,0,2.2088,2.2042,2.2027,2.2018,2.1994,2.1952,2.195,2.1929,2.1906,2.1903,2.1863,2.1854,2.1841,2.1819,2.1816,2.1798,2.1779,2.1779,2.1812,2.1817,2.1821,2.1825,2.178,0,0,0,0,0,2.2097,2.2084,2.2044,2.2039,2.2028,2.1992,2.198,2.1958,2.193,2.1919,2.189,2.1863,2.1841,2.1828,2.1806,2.1797,2.1786,2.1796,2.18,2.1803,2.1803,2.1795,2.1799,2.1762,2.1762,2.1762,0,0,2.2115,2.2088,2.2082,2.2048,2.2026,2.2012,2.1983,2.1969,2.1957,2.1916,2.1899,2.1877,2.1843,2.183,2.1822,2.1812,2.1811,2.1805,2.1808,2.1806,2.1797,2.1801,2.1804,2.1763,2.1763,2.1763,0,0,2.2139,2.2118,2.2112,2.2092,2.206,2.2036,2.2035,2.1997,2.1981,2.1963,2.1932,2.1917,2.1881,2.1858,2.1842,2.1859,2.1835,2.1852,2.1873,2.1866,2.1869,2.1871,2.1876,2.1878,2.1853,2.1853,2.1853,0,2.2164,2.2142,2.2111,2.2099,2.2084,2.2049,2.2042,2.2023,2.1985,2.1975,2.1964,2.1919,2.1894,2.1875,2.1879,2.1867,2.1863,2.1856,2.1872,2.1874,2.1875,2.1879,2.1881,2.1855,2.1855,2.1855,2.1854,0,2.2174,2.216,2.2158,2.2125,2.211,2.2101,2.2066,2.2055,2.2034,2.201,2.1992,2.1961,2.1932,2.1926,2.1904,2.1903,2.1897,2.188,2.186,2.1882,2.1884,2.1886,2.1858,2.1858,2.1857,2.1856,0,0,2.2223,2.2173,2.2173,2.2158,2.2121,2.2108,2.2096,2.207,2.206,2.2035,2.2023,2.1994,2.1978,2.196,2.1936,2.193,2.1943,2.1913,2.1911,2.1918,2.1938,2.195,2.1953,2.1928,2.1928,2.1928,2.194,0,2.224,2.2219,2.2191,2.2178,2.2163,2.213,2.212,2.2095,2.2073,2.2055,2.2029,2.2009,2.199,2.1979,2.1972,2.1943,2.1946,2.1942,2.1914,2.1913,2.1922,2.1954,2.1968,2.198,2.1941,2.1941,2.1942,0,2.2258,2.2237,2.2223,2.2188,2.2181,2.2172,2.2145,2.213,2.2101,2.2084,2.2065,2.2039,2.2023,2.2007,2.1982,2.198,2.1967,2.1951,2.1951,2.1946,2.1928,2.1949,2.1984,2.1985,2.1943,2.1943,2.1943,0,2.2293,2.2261,2.2249,2.2237,2.2195,2.219,2.2172,2.2142,2.2128,2.2104,2.2094,2.2068,2.2054,2.2033,2.2,2.1992,2.1979,2.196,2.1964,2.1965,2.1961,2.1962,2.1994,2.1955,2.1955,2.1955,2.1955,0,2.2315,2.2307,2.2265,2.2257,2.2247,2.2214,2.2205,2.2184,2.2158,2.2144,2.2113,2.21,2.2059,2.2041,2.2015,2.1998,2.1992,2.1977,2.197,2.1979,2.1981,2.1969,2.1966,2.1956,2.1956,2.1956,2.1956,0,2.2352,2.2323,2.2308,2.227,2.2261,2.2255,2.2222,2.2212,2.2189,2.2172,2.2166,2.2128,2.2104,2.2071,2.2037,2.2019,2.2006,2.1995,2.2017,2.2012,2.2017,2.2017,2.2041,2.2042,2.2005,2.2005,2.2006,0,2.2367,2.2361,2.2324,2.2313,2.2297,2.2281,2.2266,2.2233,2.222,2.2186,2.218,2.2155,2.2133,2.2098,2.2066,2.2039,2.2027,2.2037,2.2023,2.2032,2.2025,2.2026,2.2024,2.204,2.2041,2.2042,2.2042,0,2.2397,2.2383,2.2365,2.2342,2.2327,2.2307,2.2285,2.2277,2.2239,2.2225,2.2202,2.2186,2.2152,2.2127,2.2096,2.2075,2.2052,2.2047,2.2046,2.2055,2.2067,2.2059,2.2025,2.2046,2.2046,2.2046,2.2045,2.2045,2.2422,2.2415,2.2388,2.2369,2.2349,2.233,2.2319,2.2295,2.2276,2.2247,2.2229,2.2207,2.2176,2.2133,2.2114,2.2094,2.2084,2.2084,2.2083,2.2083,2.2086,2.2072,2.2089,2.2089,2.2088,2.2088,2.2088,0,2.2449,2.243,2.2413,2.2385,2.2369,2.2351,2.2326,2.2313,2.2295,2.227,2.225,2.2223,2.2199,2.2166,2.2138,2.2129,2.2118,2.2123,2.2123,2.2118,2.2097,2.21,2.2133,2.2133,2.2133,2.2133,2.2133,2.2133,2.2461,2.2448,2.2431,2.2408,2.2388,2.2368,2.2355,2.2336,2.2316,2.2289,2.2269,2.2249,2.2219,2.219,2.2166,2.2157,2.2147,2.2156,2.2143,2.2124,2.2119,2.2116,2.2118,2.2155,2.2155,2.2165,2.2166,2.2166]}]]